Showing default

CYGFM07, 41890

Orbit data source: Space-Track

CYGFM07, 41890 is an American payload satellite in LEO that was launched on Thu, 15 Dec 2016 UTC via a PEGASUS XL launch vehicle from the Pegasus Launch, Eastern Range Air Space (ERAS). Payload-class satellites include a variety of spacecraft equipped with specific instruments for various scientific and technological missions. These include communications satellites like Starlink; space stations such as the ISS; scientific satellites like the Hubble; Earth observation satellites from companies like Planet Labs, Umbra, and HawkEye 360; GPS; miniature CubeSats for education and research; and military/defense satellites.

Loading next visibility...
Identifier
41890, 2016-078G
Orbit
LEO
Last TLE update
11 hours ago
Origin
Manufacturer
SST-US
Mission
Extended mission Civil Science
Bus & Motor
CYGNSS, Unknown motor
Mass
29 kg wet, 29 kg dry
Launch date (UTC)
2016-12-15 (8 years ago)
Launch vehicle
PEGASUS XL
Launch site
Pegasus Launch, Eastern Range Air Space (ERAS)
Object type
Payload
Rocket body
Debris
Shape & HBR
Half Hex Cyl + 2 Pan, 1.7 m
Radar Cross Section
0.450 m², Medium (>0.1 m² and < 1m²)

Expand to show TLE details & history

TLE from 11 hours ago
0 CYGFM07
1 41890U 16078G   25128.91148691  .00015514  00000-0  35781-3 0  9994
2 41890  34.9498 359.0409 0010479 335.6050  24.4173 15.41621671466241
Epoch: 2025-05-08T21:52Z
Definitive object data (Epoch: 2025-05-08T21:52:32.469Z)
Latitude
0.00001°
Longitude
163.93044°
Altitude
433.712 km
Speed
7.657 km/s
True Right ascension
23h 56m 09s
True Declination
0° 00' 00"
Sunlit
Object was in daylight at TLE epoch
Visualization TLE readout
Latitude
35.0913°
Longitude
-107.67507°
Altitude
444.443 km
Speed
7.65 km/s
Apparent Right ascension
05h 34m 59s
Apparent Declination
0° 55' 35"
Sunlit
Object is in daylight
Visualization observer readout
Local Sidereal Time
17:18:09
Azimuth
353.332° N
Elevation
-50.823°
Doppler factor
1
Orbital elements
Apogee altitude
451.757 km
Perigee altitude
437.458 km
Semi-major axis
6,822.744 km
Eccentricity
0.0010479
Inclination
34.9498°
RAAN
359.0409°
Arg. of periapsis
335.605°
True anomaly
24.467°
Mean anomaly
24.4173°
Eccentric anomaly
24.44214°
Mean motion
3.85127 °/min
BSTAR
0.00035781
Orbital period
93.48 mins
Loading maneuver chart data...
Loading SW <> Apogee altitude chart data...
Loading historical data...
Loading historical data...
Loading historical data...
Loading historical data...
Loading historical data...
Loading historical data...
Loading historical data...

CYGFM07 Visibility forecast

Observer location: undefined°, undefined°

Span
Click to sort rows by Start time (UTC) header in descending order
Start Az.
Max El. time (UTC)
Max El. Az.
Max El.
End time (UTC)
End Az.
5 mins2025-05-09 19:54:52.933Z219.42° SW2025-05-09 19:56:52.933Z176.856° S23.925°2025-05-09 19:59:52.933Z111.063° ESE
4 mins2025-05-09 21:33:52.933Z230.274° WSW2025-05-09 21:35:52.933Z162.144° S28.732°2025-05-09 21:37:52.933Z120.98° SE
4 mins2025-05-09 23:11:52.933Z233.977° WSW2025-05-09 23:13:52.933Z188.201° SSW19.715°2025-05-09 23:15:52.933Z150.386° SSE
|